This is the latest recevied weather packets stored in our database for station/object N9OJR. If no packets are shown the sender has not sent any weather packets the latest 1 day(s).
| Time | Temp. | Humidity | Pressure | Rain* | Wind** | Luminosity | Snow |
|---|---|---|---|---|---|---|---|
| 1836274605 | 17.78° C | 84% | 1017 hPa | 0 mm | 0 m/s | 0 W/m² | - |
| 1836274458 | 17.78° C | 85% | 1017.4 hPa | 0 mm | 0 m/s | 0 W/m² | - |
| 1836274303 | 17.78° C | 83% | 1017.1 hPa | 0 mm | 0 m/s | 0 W/m² | - |
| 1836274156 | 17.78° C | 84% | 1017.3 hPa | 0 mm | 0 m/s | 0 W/m² | - |
| 1836274002 | 18.33° C | 83% | 1017.1 hPa | 0 mm | 0 m/s | 0 W/m² | - |
| 1778051697 | 6.67° C | 99% | 1003.9 hPa | 3.05 mm | 0.45 m/s, 303° | 0 W/m² | - |
| 1778051394 | 6.67° C | 99% | 1003.6 hPa | 3.05 mm | 0.45 m/s, 328° | 0 W/m² | - |
| 1778051091 | 6.67° C | 99% | 1003.6 hPa | 3.05 mm | 0 m/s | 0 W/m² | - |
| 1778050787 | 6.67° C | 99% | 1003.6 hPa | 3.05 mm | 0.45 m/s, 291° | 0 W/m² | - |
| 1778050485 | 7.22° C | 99% | 1003.8 hPa | 3.05 mm | 0.45 m/s, 301° | 0 W/m² | - |
| 1778050182 | 7.22° C | 99% | 1003.8 hPa | 3.05 mm | 0.45 m/s, 318° | 0 W/m² | - |
| 1778049878 | 7.22° C | 99% | 1003.7 hPa | 1.78 mm | 0.45 m/s, 326° | 0 W/m² | - |
| 1778049575 | 7.22° C | 99% | 1003.7 hPa | 1.27 mm | 0.45 m/s, 305° | 0 W/m² | - |
| 1778049272 | 7.22° C | 99% | 1003.4 hPa | 3.05 mm | 0.45 m/s, 284° | 0 W/m² | - |
| 1778048970 | 7.22° C | 99% | 1003.6 hPa | 3.05 mm | 0.89 m/s, 25° | 0 W/m² | - |
| 1778048668 | 7.78° C | 99% | 1003.7 hPa | 1.27 mm | 0.45 m/s, 304° | 0 W/m² | - |
| 1778048364 | 7.78° C | 99% | 1003.8 hPa | 3.05 mm | 0.45 m/s, 312° | 0 W/m² | - |
| 1778048061 | 7.78° C | 99% | 1003.7 hPa | 1.27 mm | 0.45 m/s, 10° | 0 W/m² | - |
| 1778047759 | 7.78° C | 99% | 1003.6 hPa | 1.78 mm | 1.34 m/s, 313° | 0 W/m² | - |
| 1778047457 | 7.78° C | 99% | 1003.8 hPa | 3.05 mm | 0.89 m/s, 342° | 0 W/m² | - |
| 1778047153 | 7.78° C | 99% | 1003.9 hPa | 3.05 mm | 0.45 m/s, 284° | 0 W/m² | - |
| 1778046850 | 8.33° C | 99% | 1003.9 hPa | 3.05 mm | 0.89 m/s, 318° | 0 W/m² | - |
| 1778046547 | 8.33° C | 99% | 1003.9 hPa | 4.83 mm | 0 m/s | 0 W/m² | - |
| 1778046244 | 8.33° C | 99% | 1004.2 hPa | 3.05 mm | 0.45 m/s, 314° | 0 W/m² | - |
| 1778045940 | 8.33° C | 99% | 1004 hPa | 1.27 mm | 0 m/s | 0 W/m² | - |
* Rain latest hour (hover to see other rain measurements)
** Current wind speed in m/s (hover to see current wind gust speed)